TimePST,TemperatureF,Dew PointF,Humidity,Sea Level PressureIn,VisibilityMPH,Wind Direction,Wind SpeedMPH,Gust SpeedMPH,PrecipitationIn,Events,Conditions,WindDirDegrees,DateUTC
12:53 AM,52.0,48.0,86,29.66,10.0,Calm,Calm,-,N/A,,Overcast,0,2012-12-14 08:53:00
1:53 AM,52.0,46.9,83,29.67,10.0,Calm,Calm,-,N/A,,Overcast,0,2012-12-14 09:53:00
2:53 AM,52.0,46.0,80,29.67,10.0,Calm,Calm,-,N/A,,Overcast,0,2012-12-14 10:53:00
3:53 AM,50.0,44.1,80,29.68,10.0,SSW,4.6,-,N/A,,Clear,210,2012-12-14 11:53:00
4:53 AM,46.9,44.1,90,29.70,10.0,Calm,Calm,-,N/A,,Clear,0,2012-12-14 12:53:00
5:53 AM,46.0,43.0,89,29.73,10.0,Calm,Calm,-,N/A,,Partly Cloudy,0,2012-12-14 13:53:00
6:53 AM,46.0,42.1,86,29.76,10.0,Calm,Calm,-,N/A,,Partly Cloudy,0,2012-12-14 14:53:00
7:53 AM,50.0,39.9,68,29.79,10.0,SE,6.9,-,0.00,Rain,Light Rain,140,2012-12-14 15:53:00
8:53 AM,52.0,41.0,66,29.82,10.0,Calm,Calm,-,N/A,,Clear,0,2012-12-14 16:53:00
9:53 AM,55.9,37.9,51,29.84,10.0,WNW,3.5,-,N/A,,Scattered Clouds,300,2012-12-14 17:53:00
10:53 AM,59.0,37.0,44,29.85,10.0,Calm,Calm,-,N/A,,Scattered Clouds,0,2012-12-14 18:53:00
11:53 AM,60.1,36.0,41,29.83,10.0,NE,12.7,-,N/A,,Scattered Clouds,40,2012-12-14 19:53:00
12:53 PM,60.1,34.0,38,29.83,10.0,North,6.9,-,N/A,,Scattered Clouds,10,2012-12-14 20:53:00
1:53 PM,60.1,33.1,36,29.82,10.0,NNE,8.1,-,N/A,,Clear,30,2012-12-14 21:53:00
2:53 PM,61.0,32.0,34,29.83,10.0,East,9.2,-,N/A,,Scattered Clouds,80,2012-12-14 22:53:00
3:53 PM,59.0,32.0,36,29.86,10.0,East,3.5,-,N/A,,Mostly Cloudy,90,2012-12-14 23:53:00
4:53 PM,57.0,32.0,39,29.86,10.0,ENE,6.9,-,N/A,,Overcast,60,2012-12-15 00:53:00
5:53 PM,55.9,32.0,40,29.88,10.0,Calm,Calm,-,N/A,,Mostly Cloudy,0,2012-12-15 01:53:00
6:53 PM,55.9,33.1,42,29.90,10.0,NNW,6.9,-,N/A,,Overcast,340,2012-12-15 02:53:00
7:53 PM,53.1,34.0,48,29.91,10.0,NW,11.5,-,N/A,,Overcast,320,2012-12-15 03:53:00
8:53 PM,53.1,34.0,48,29.94,10.0,NW,10.4,-,N/A,,Overcast,310,2012-12-15 04:53:00
9:53 PM,52.0,35.1,53,29.94,10.0,NW,11.5,-,N/A,,Overcast,320,2012-12-15 05:53:00
10:53 PM,50.0,36.0,59,29.95,10.0,Calm,Calm,-,N/A,,Overcast,0,2012-12-15 06:53:00
11:53 PM,48.9,37.9,66,29.95,10.0,Calm,Calm,-,N/A,,Clear,0,2012-12-15 07:53:00